W3KCF Weather Reports


Display with metric or nautical units.
time (UTC)temp
F
wind
direction
speed
MPH
gust
MPH
rain 1hr
in
rain 24hr
in
rain mn
in
humidity
%
barometer
mb
20260506172505 61 309 0.0 5.0 0.05 0.23 0.23 90 1007.4
20260506172008 61 144 0.0 5.0 0.05 0.23 0.23 90 1007.5
20260506171528 61 278 0.0 2.0 0.04 0.22 0.22 90 1007.5
20260506171006 61 150 0.0 7.0 0.03 0.21 0.21 90 1007.4
20260506170515 61 86 0.0 7.0 0.04 0.21 0.21 89 1007.4
20260506170023 61 58 0.0 3.0 0.03 0.20 0.20 89 1007.5
20260506165510 61 9 1.0 4.0 0.04 0.20 0.20 89 1007.5
20260506165008 61 192 1.0 4.0 0.03 0.19 0.19 88 1007.6
20260506164518 61 155 1.0 4.0 0.04 0.19 0.19 89 1007.6
20260506164016 61 35 1.0 3.0 0.05 0.19 0.19 89 1007.5
20260506163508 61 53 0.0 6.0 0.06 0.18 0.18 88 1007.6
20260506163014 61 293 2.0 6.0 0.07 0.18 0.18 88 1007.6
20260506162507 61 197 1.0 10.0 0.08 0.18 0.18 88 1007.6
20260506162013 61 181 2.0 10.0 0.09 0.18 0.18 88 1007.7
20260506161528 61 169 1.0 8.0 0.09 0.18 0.18 88 1007.5
20260506161008 61 69 1.0 8.0 0.09 0.18 0.18 87 1007.6
20260506160506 61 111 3.0 6.0 0.09 0.17 0.17 88 1007.6
20260506160026 61 348 1.0 8.0 0.09 0.17 0.17 88 1007.7
20260506155507 61 44 0.0 8.0 0.08 0.16 0.16 88 1007.7
20260506155006 61 212 1.0 7.0 0.08 0.16 0.16 88 1007.9
20260506154532 61 67 1.0 8.0 0.08 0.15 0.15 87 1008.1
20260506154006 62 182 1.0 8.0 0.07 0.14 0.14 87 1008.5
20260506153508 62 192 0.0 4.0 0.05 0.12 0.12 87 1008.7
20260506153026 62 46 1.0 4.0 0.05 0.11 0.11 86 1008.5
20260506152509 62 232 0.0 2.0 0.05 0.10 0.10 86 1008.5
20260506152015 62 200 0.0 4.0 0.05 0.09 0.09 87 1008.2
20260506151524 62 52 0.0 7.0 0.06 0.09 0.09 86 1008.2
20260506151004 62 111 1.0 7.0 0.06 0.09 0.09 87 1008.1
20260506150503 62 128 1.0 3.0 0.05 0.08 0.08 88 1008.0
20260506150004 62 109 0.0 2.0 0.05 0.08 0.08 88 1008.1
20260506145503 62 109 0.0 3.0 0.05 0.08 0.08 88 1008.2
20260506145002 62 171 1.0 3.0 0.06 0.08 0.08 88 1008.2
20260506144507 62 103 0.0 2.0 0.05 0.07 0.07 88 1008.3
20260506144004 62 84 0.0 2.0 0.05 0.07 0.07 87 1008.3
20260506143504 62 76 0.0 1.0 0.05 0.07 0.07 86 1008.6
20260506143015 62 80 0.0 0.0 0.05 0.06 0.06 86 1008.7
20260506142504 62 130 0.0 1.0 0.04 0.05 0.05 86 1008.7
20260506142003 62 134 0.0 3.0 0.03 0.04 0.04 85 1008.8
20260506141509 62 149 0.0 4.0 0.03 0.03 0.03 85 1008.8
20260506141006 62 175 1.0 4.0 0.03 0.03 0.03 84 1008.7
20260506140503 62 195 0.0 3.0 0.03 0.03 0.03 85 1008.7
20260506140007 62 184 0.0 3.0 0.03 0.03 0.03 84 1008.5
20260506135505 62 23 0.0 2.0 0.03 0.03 0.03 85 1008.6
20260506135006 63 148 0.0 2.0 0.02 0.02 0.02 83 1008.8
20260506134511 63 98 0.0 5.0 0.02 0.02 0.02 83 1008.7
20260506134003 63 145 0.0 5.0 0.02 0.02 0.02 82 1008.8
20260506133503 63 92 0.0 3.0 0.02 0.02 0.02 82 1008.7
20260506133007 63 205 0.0 3.0 0.01 0.01 0.01 81 1008.7
20260506132505 64 109 0.0 2.0 0.01 0.01 0.01 81 1008.8
20260506132008 64 73 0.0 2.0 0.01 0.01 0.01 80 1008.9
20260506131510 64 285 0.0 5.0 0.00 0.00 0.00 80 1008.9
20260506131007 64 155 0.0 5.0 0.00 0.00 0.00 78 1008.9
20260506130505 65 158 0.0 5.0 0.00 0.00 0.00 76 1008.9
20260506130010 65 125 1.0 5.0 0.00 0.00 0.00 75 1009.0
20260506125503 65 196 0.0 2.0 0.00 0.00 0.00 75 1008.9
20260506125005 66 98 1.0 5.0 0.00 0.00 0.00 74 1008.7
20260506124510 66 315 1.0 6.0 0.00 0.00 0.00 72 1008.6
20260506124003 65 217 1.0 6.0 0.00 0.00 0.00 71 1008.7
20260506123503 65 46 0.0 3.0 0.00 0.00 0.00 72 1008.7
20260506123008 65 287 1.0 5.0 0.00 0.00 0.00 72 1008.5
20260506122503 65 314 2.0 5.0 0.00 0.00 0.00 72 1008.4
20260506122002 65 160 0.0 2.0 0.00 0.00 0.00 72 1008.3
20260506121520 65 350 0.0 5.0 0.00 0.00 0.00 72 1008.5
20260506121004 65 219 0.0 5.0 0.00 0.00 0.00 72 1008.5
20260506120504 65 153 1.0 4.0 0.00 0.00 0.00 72 1008.5
20260506120012 65 87 1.0 4.0 0.00 0.00 0.00 74 1008.5
20260506115505 65 239 1.0 4.0 0.00 0.00 0.00 73 1008.6
20260506115005 65 142 0.0 7.0 0.00 0.00 0.00 73 1008.6
20260506114510 65 122 1.0 7.0 0.00 0.00 0.00 73 1008.6
20260506114008 65 158 0.0 7.0 0.00 0.00 0.00 73 1008.7
20260506113506 65 263 0.0 7.0 0.00 0.00 0.00 73 1008.7
20260506113024 64 143 1.0 3.0 0.00 0.00 0.00 73 1008.6
20260506112506 64 155 0.0 2.0 0.00 0.00 0.00 73 1008.7
20260506112008 64 135 0.0 2.0 0.00 0.00 0.00 73 1008.7
20260506111508 64 145 0.0 3.0 0.00 0.00 0.00 73 1008.7
20260506111008 64 61 0.0 3.0 0.00 0.00 0.00 74 1008.6
20260506110503 64 73 1.0 3.0 0.00 0.00 0.00 73 1008.6
20260506110011 64 38 0.0 2.0 0.00 0.00 0.00 74 1008.4
20260506105506 64 100 0.0 3.0 0.00 0.00 0.00 73 1008.2
20260506105005 64 85 0.0 4.0 0.00 0.00 0.00 74 1008.2
20260506104505 64 81 0.0 5.0 0.00 0.00 0.00 74 1008.1
20260506104003 64 140 0.0 5.0 0.00 0.00 0.00 74 1008.1
20260506103504 63 63 0.0 2.0 0.00 0.00 0.00 74 1008.1
20260506103015 63 120 0.0 2.0 0.00 0.00 0.00 74 1008.1
20260506102503 63 92 0.0 3.0 0.00 0.00 0.00 74 1008.1
20260506102004 63 157 1.0 3.0 0.00 0.00 0.00 74 1008.2
20260506101514 63 106 0.0 4.0 0.00 0.00 0.00 74 1008.1
20260506101006 63 336 0.0 4.0 0.00 0.00 0.00 74 1008.0
20260506100505 62 286 0.0 4.0 0.00 0.00 0.00 75 1008.1
20260506100015 62 90 0.0 2.0 0.00 0.00 0.00 75 1008.3
20260506095505 62 323 0.0 2.0 0.00 0.00 0.00 75 1008.2
20260506095004 61 296 0.0 2.0 0.00 0.00 0.00 75 1008.1
20260506094516 61 289 0.0 2.0 0.00 0.00 0.00 76 1008.0
20260506094002 61 228 0.0 2.0 0.00 0.00 0.00 76 1008.0
20260506093506 61 314 0.0 2.0 0.00 0.01 0.00 76 1008.1
20260506093014 60 64 0.0 2.0 0.00 0.01 0.00 75 1008.2
20260506092504 60 348 1.0 2.0 0.00 0.01 0.00 76 1008.1
20260506092007 60 328 0.0 2.0 0.00 0.01 0.00 76 1008.1
20260506091517 60 5 0.0 2.0 0.00 0.01 0.00 76 1008.0
20260506091005 60 305 0.0 5.0 0.00 0.01 0.00 76 1008.0
20260506090505 60 238 0.0 5.0 0.00 0.01 0.00 75 1008.1
20260506090018 60 257 0.0 3.0 0.00 0.02 0.00 75 1008.2
20260506085511 60 34 0.0 2.0 0.00 0.02 0.00 76 1008.2
20260506085006 60 277 0.0 2.0 0.00 0.02 0.00 74 1008.3
20260506084510 60 360 0.0 2.0 0.00 0.02 0.00 74 1008.3
20260506084006 60 360 0.0 2.0 0.00 0.02 0.00 75 1008.3
20260506083505 60 336 0.0 1.0 0.00 0.02 0.00 75 1008.3
20260506083020 60 274 0.0 0.0 0.00 0.02 0.00 74 1008.4
20260506082505 61 299 0.0 0.0 0.00 0.02 0.00 73 1008.3
20260506082004 61 224 0.0 0.0 0.00 0.02 0.00 73 1008.4
20260506081519 61 221 0.0 0.0 0.00 0.02 0.00 71 1008.3
20260506081007 61 216 0.0 0.0 0.00 0.02 0.00 70 1008.3
20260506080505 61 197 0.0 0.0 0.00 0.02 0.00 69 1008.2
20260506073504 63 203 0.0 0.0 0.00 0.02 0.00 66 1008.4
20260506073021 63 203 0.0 2.0 0.00 0.02 0.00 66 1008.4
20260506072506 63 203 0.0 2.0 0.00 0.02 0.00 65 1008.5
20260506072006 64 203 0.0 2.0 0.00 0.02 0.00 64 1008.6
20260506071519 64 198 0.0 2.0 0.00 0.02 0.00 64 1008.5
20260506071007 64 201 0.0 2.0 0.00 0.02 0.00 64 1008.6
20260506070507 64 207 0.0 1.0 0.00 0.02 0.00 64 1008.7
20260506062508 65 296 0.0 4.0 0.00 0.02 0.00 62 1008.9
20260506062007 65 55 0.0 2.0 0.00 0.02 0.00 62 1009.0
20260506061543 65 200 0.0 5.0 0.00 0.02 0.00 61 1009.0
20260506061008 65 163 0.0 5.0 0.00 0.02 0.00 59 1009.1
20260506060507 66 230 0.0 3.0 0.00 0.02 0.00 60 1009.2
20260506051004 66 89 0.0 2.0 0.00 0.02 0.00 58 1009.3
20260506050515 66 94 0.0 2.0 0.00 0.02 0.00 58 1009.3
20260506045008 67 222 0.0 4.0 0.00 0.02 0.00 56 1009.4
20260506044523 67 113 0.0 4.0 0.00 0.02 0.00 56 1009.4
20260506044004 67 261 0.0 4.0 0.00 0.02 0.00 56 1009.4
20260506043507 67 242 0.0 4.0 0.00 0.02 0.00 55 1009.4
20260506043031 67 190 1.0 4.0 0.00 0.02 0.00 55 1009.3
20260506042506 67 41 0.0 2.0 0.00 0.02 0.00 55 1009.4
20260506042008 67 85 0.0 2.0 0.00 0.02 0.00 56 1009.4
20260506041511 67 179 0.0 5.0 0.00 0.02 0.00 56 1009.4
20260506041007 67 83 0.0 5.0 0.00 0.02 0.00 55 1009.3
20260506040506 67 58 0.0 4.0 0.00 0.02 0.00 54 1009.3
20260506040012 68 199 0.0 4.0 0.00 0.02 0.00 54 1009.4
20260506035507 68 44 1.0 3.0 0.00 0.02 0.02 54 1009.3
20260506035011 68 288 0.0 2.0 0.00 0.02 0.02 53 1009.3
20260506034527 68 360 0.0 2.0 0.00 0.02 0.02 51 1009.4
20260506034008 69 308 0.0 2.0 0.00 0.02 0.02 52 1009.3
20260506033504 69 182 1.0 2.0 0.00 0.02 0.02 51 1009.3
20260506033023 69 317 0.0 2.0 0.00 0.02 0.02 50 1009.2
20260506032506 69 39 0.0 3.0 0.00 0.02 0.02 51 1009.1
20260506032008 70 208 1.0 3.0 0.00 0.02 0.02 49 1009.2
20260506031533 70 159 0.0 3.0 0.00 0.02 0.02 50 1009.1
20260506031011 70 18 0.0 4.0 0.00 0.02 0.02 49 1009.1
20260506030509 70 161 0.0 4.0 0.00 0.02 0.02 48 1009.0
20260506030025 70 94 0.0 4.0 0.00 0.02 0.02 48 1009.0
20260506025503 70 194 0.0 4.0 0.00 0.02 0.02 47 1009.1
20260506025007 70 339 0.0 4.0 0.00 0.02 0.02 48 1009.2
20260506024537 70 315 1.0 4.0 0.00 0.02 0.02 47 1009.1
20260506024007 71 65 0.0 3.0 0.00 0.02 0.02 47 1009.1
20260506023508 71 219 0.0 4.0 0.00 0.02 0.02 46 1009.2
20260506023020 71 340 0.0 4.0 0.00 0.02 0.02 47 1009.2
20260506022515 71 327 1.0 4.0 0.00 0.02 0.02 46 1009.1
20260506022008 71 251 0.0 3.0 0.00 0.02 0.02 46 1009.1
20260506021516 71 171 0.0 3.0 0.00 0.02 0.02 46 1009.0
20260506021008 71 86 0.0 5.0 0.00 0.02 0.02 46 1009.0
20260506020507 71 105 2.0 5.0 0.00 0.02 0.02 44 1009.0
20260506020016 71 163 1.0 4.0 0.00 0.02 0.02 45 1009.0
20260506015509 72 82 0.0 3.0 0.00 0.02 0.02 45 1009.0
20260506015006 72 143 0.0 4.0 0.00 0.02 0.02 45 1009.0
20260506014530 72 302 1.0 7.0 0.00 0.02 0.02 45 1008.9
20260506014008 72 297 2.0 7.0 0.00 0.02 0.02 44 1008.8
20260506013503 72 72 0.0 2.0 0.00 0.02 0.02 45 1008.8
20260506013027 72 60 0.0 2.0 0.00 0.02 0.02 45 1008.8
20260506012507 72 48 0.0 2.0 0.00 0.02 0.02 44 1008.7
20260506012004 72 55 0.0 3.0 0.00 0.02 0.02 45 1008.7
20260506011530 72 148 1.0 4.0 0.00 0.02 0.02 44 1008.5
20260506011010 72 327 1.0 4.0 0.00 0.02 0.02 43 1008.5
20260506010508 72 352 0.0 2.0 0.00 0.02 0.02 44 1008.5
20260506010024 73 77 0.0 2.0 0.00 0.02 0.02 43 1008.5
20260506005504 73 22 0.0 2.0 0.00 0.02 0.02 44 1008.4
20260506005007 73 34 0.0 2.0 0.00 0.02 0.02 43 1008.3
20260506004523 74 117 0.0 3.0 0.00 0.02 0.02 43 1008.3
20260506004004 74 83 0.0 3.0 0.00 0.02 0.02 42 1008.3
20260506003510 74 220 0.0 5.0 0.00 0.02 0.02 43 1008.3
20260506003024 75 58 0.0 7.0 0.00 0.02 0.02 41 1008.1
20260506002511 75 182 2.0 7.0 0.00 0.02 0.02 40 1008.1
20260506002008 75 171 0.0 6.0 0.00 0.02 0.02 41 1008.1
20260506001519 75 59 2.0 6.0 0.00 0.02 0.02 41 1008.0
20260506001009 75 54 0.0 4.0 0.00 0.02 0.02 42 1008.0
20260506000509 75 146 1.0 4.0 0.00 0.02 0.02 41 1007.9
20260506000019 75 84 0.0 3.0 0.00 0.02 0.02 40 1007.9
20260505235507 76 97 1.0 3.0 0.00 0.02 0.02 41 1007.9
20260505235008 76 89 0.0 4.0 0.00 0.02 0.02 40 1007.8
20260505234526 76 61 1.0 4.0 0.00 0.02 0.02 40 1007.7
20260505234007 76 151 0.0 4.0 0.00 0.02 0.02 39 1007.6
20260505233506 76 122 0.0 7.0 0.00 0.02 0.02 41 1007.7
20260505233027 76 340 1.0 7.0 0.00 0.02 0.02 39 1007.6
20260505232512 76 62 0.0 3.0 0.00 0.02 0.02 41 1007.6
20260505232006 76 76 1.0 7.0 0.00 0.02 0.02 39 1007.6
20260505231528 77 19 1.0 8.0 0.00 0.02 0.02 39 1007.6
20260505231008 77 78 2.0 8.0 0.00 0.02 0.02 38 1007.5
20260505230509 77 51 2.0 6.0 0.00 0.02 0.02 38 1007.5
20260505230027 77 180 0.0 4.0 0.00 0.02 0.02 38 1007.4
20260505225508 77 34 0.0 3.0 0.00 0.02 0.02 39 1007.3
20260505225010 77 202 0.0 4.0 0.00 0.02 0.02 40 1007.1
20260505224523 77 229 1.0 8.0 0.00 0.02 0.02 39 1007.0
20260505224007 77 86 1.0 8.0 0.00 0.02 0.02 38 1007.1
20260505223510 77 74 1.0 5.0 0.00 0.02 0.02 39 1007.1
20260505223030 78 141 1.0 3.0 0.00 0.02 0.02 38 1007.0
20260505222509 78 74 0.0 8.0 0.00 0.02 0.02 39 1007.0
20260505222009 78 171 1.0 8.0 0.00 0.02 0.02 37 1007.0
20260505221525 78 148 2.0 7.0 0.00 0.02 0.02 38 1007.0
20260505221011 78 116 1.0 11.0 0.00 0.02 0.02 37 1007.0
20260505220509 78 67 4.0 11.0 0.00 0.02 0.02 36 1006.9
20260505220020 78 203 2.0 8.0 0.00 0.02 0.02 36 1007.0
20260505215509 78 144 1.0 8.0 0.00 0.02 0.02 37 1006.8
20260505215006 79 90 2.0 7.0 0.00 0.02 0.02 36 1006.8
20260505214523 79 119 2.0 13.0 0.00 0.02 0.02 36 1006.7
20260505214007 79 325 3.0 13.0 0.00 0.02 0.02 36 1006.6
20260505213507 80 74 0.0 9.0 0.00 0.02 0.02 35 1006.8
20260505213029 80 142 2.0 14.0 0.00 0.02 0.02 35 1006.8
20260505212503 80 103 2.0 14.0 0.00 0.02 0.02 37 1006.7
20260505212007 81 339 2.0 8.0 0.00 0.02 0.02 35 1006.7
20260505211512 81 10 1.0 12.0 0.00 0.02 0.02 37 1006.5
20260505211002 81 109 4.0 12.0 0.00 0.02 0.02 34 1006.5
20260505210508 81 30 3.0 11.0 0.00 0.02 0.02 34 1006.7
20260505210008 81 329 2.0 12.0 0.00 0.02 0.02 34 1006.5
20260505205503 82 205 2.0 12.0 0.00 0.02 0.02 37 1006.8
20260505205005 82 100 2.0 8.0 0.00 0.02 0.02 35 1006.5
20260505204506 83 192 1.0 9.0 0.00 0.02 0.02 35 1006.4
20260505204008 83 344 3.0 10.0 0.00 0.02 0.02 34 1006.5
20260505203504 83 360 3.0 10.0 0.00 0.02 0.02 35 1006.6
20260505203006 83 154 3.0 12.0 0.00 0.02 0.02 34 1006.5
20260505202507 83 186 2.0 12.0 0.00 0.02 0.02 34 1006.4
20260505202003 82 284 4.0 13.0 0.00 0.02 0.02 32 1006.6
20260505201511 83 141 5.0 13.0 0.00 0.02 0.02 30 1006.5
20260505201007 84 68 2.0 8.0 0.00 0.02 0.02 29 1006.6
20260505200505 84 331 2.0 9.0 0.00 0.02 0.02 30 1006.6
20260505200027 83 149 3.0 11.0 0.00 0.02 0.02 28 1006.7
20260505195505 83 352 5.0 12.0 0.00 0.02 0.02 29 1006.8
20260505195003 83 159 2.0 12.0 0.00 0.02 0.02 29 1007.0
20260505194520 83 258 2.0 11.0 0.00 0.02 0.02 28 1007.0
20260505194003 84 9 3.0 10.0 0.00 0.02 0.02 29 1007.0
20260505193506 84 132 3.0 7.0 0.00 0.02 0.02 31 1006.9
20260505193018 84 153 1.0 12.0 0.00 0.02 0.02 29 1007.1
20260505192504 83 85 1.0 12.0 0.00 0.02 0.02 31 1007.1
20260505192009 83 171 4.0 10.0 0.00 0.02 0.02 29 1007.1
20260505191519 83 127 3.0 10.0 0.00 0.02 0.02 30 1007.2
20260505191003 83 182 4.0 14.0 0.00 0.02 0.02 29 1007.5
20260505190507 83 155 4.0 14.0 0.00 0.02 0.02 29 1007.5
20260505190019 83 105 2.0 11.0 0.00 0.02 0.02 27 1007.6
20260505185507 83 10 4.0 15.0 0.00 0.02 0.02 29 1007.6
20260505185010 83 175 5.0 15.0 0.00 0.02 0.02 29 1007.5
20260505184512 83 86 3.0 10.0 0.00 0.02 0.02 30 1007.6
20260505184007 83 127 2.0 7.0 0.00 0.02 0.02 35 1007.7
20260505183507 83 104 2.0 12.0 0.00 0.02 0.02 34 1007.6
20260505183010 82 324 6.0 12.0 0.00 0.02 0.02 31 1007.7
20260505182507 82 304 3.0 20.0 0.00 0.02 0.02 31 1007.8
20260505182006 81 262 4.0 20.0 0.00 0.02 0.02 30 1007.8
20260505181506 82 186 4.0 23.0 0.00 0.02 0.02 30 1007.9
20260505181004 82 270 2.0 23.0 0.00 0.02 0.02 35 1008.0
20260505180502 82 159 4.0 15.0 0.00 0.02 0.02 37 1008.3
20260505180025 82 270 3.0 12.0 0.00 0.02 0.02 37 1008.4
20260505175509 82 124 3.0 12.0 0.00 0.02 0.02 38 1008.3
20260505175005 81 109 2.0 7.0 0.00 0.02 0.02 38 1008.5
20260505174524 82 132 2.0 14.0 0.00 0.02 0.02 37 1008.4
20260505174004 82 169 2.0 14.0 0.00 0.02 0.02 36 1008.5
20260505173504 81 148 3.0 11.0 0.00 0.02 0.02 36 1008.6
20260505173022 81 215 2.0 9.0 0.00 0.02 0.02 41 1008.5